Starlink 11109

operational
NORAD ID: 60306 Int'l Des: 2024-133 Owner: SPXS Country: US Constellation: starlink
LEOCIRCULAR

Über Starlink 11109

Beschreibung wird geladen...

Live-Position

3D-Globus wird geladen...

Nächste Überflüge

Höhenverlauf

Altitude vs Time

uPlot chart will show altitude changes over time

Zweizeiliger Elementsatz

1 60306U 24133F 26038.11976501 .00002682 00000-0 26975-4 0 9998
2 60306 53.1574 296.8532 0001024 85.5810 274.5325 15.69721653 88932
Epoch: 7. Feb. 2026 • Age: 14 hours

Aktueller Status

Höhe 360.5 km
Geschwindigkeit 7.70 km/s
Subsatellitenpunkt 26.51°N, 55.54°E
Startdatum 28. Juli 2024
Alter 1.5 years
Typ internet

Technische Details

Klassifizierung Payload
Masse 960.00 kg
Trockenmasse 910.00 kg
Gesamtmasse 960.00 kg
Länge 0.30 m
Durchmesser 4.10 m
Spannweite 29.00 m
Form Box + pan
Hersteller SPXS
Bus-Typ Starlink V2MD
Phasenstatus In Orbit
Besitzer/Staat SPXS/US

Große Konstellationen

Loading constellations...